sat.trackr.live / text

‹ back to catalog

STARLINK-34594

NORAD 65088 · 2025-167L

PAYLOAD ACTIVE UNKNOWN

§ Identity

Operator
Country
US
Launch date
2025-08-04
Launch site
AFETR
Launch vehicle
Mass (kg)
RCS (m²)

Purposes: comms

External: N2YO · Heavens-Above · Gunter

§ Orbital elements

Epoch: 2026-09-20T10:42:22.882752Z

Period
93.85 min
Inclination
53.1588°
Eccentricity
0.0001834
Mean motion
15.34431682 rev/d
Perigee alt
461.4 km
Apogee alt
463.9 km
Semi-major
6,840.7 km
B*
6.2288e-4
RAAN
201.6326°
Arg perigee
293.7280°
Mean anomaly
66.3530°
Rev number
6,330

§ Raw data

STARLINK-345941 65088U 25167L   26263.44609818  .00020748  00000+0  62288-3 0  99962 65088  53.1588 201.6326 0001834 293.7280  66.3530 15.34431682 63308

JSON: /api/v1/satellites/65088 · /tle

For live sub-satellite position, see the globe view (requires WebGL).

§ Visibility from observer

Set your observer location to see the next 7 days of passes ≥ 10°. The values pass through the URL so the page stays shareable.

No JS? Fill the form by hand. The geolocation button needs JavaScript.